Temp
52 52 52 52 52 52 52 52 52 53 53 53 54 54 54 54 54 46 44 43 42 37 40 47 50 41 40 37 30 35 34 34 32 26 26 25 25 27 26 30 30 26 25 24 26 25 23 44 41 33 38 43 44 44
52 52 51 52 52 52 52 52 52 52 52 53 53 54 54 53 53 49 43 45 45 42 43 45 47 49 51 47 39 34 36 33 36 32 27 29 25 26 26 21 34 26 32 30 31 30 39 41 41 43 43 41 42 43
52 52 51 51 51 52 52 52 52 52 53 53 53 54 54 53 53 49 41 41 42 40 43 44 44 51 52 49 46 35 36 44 40 41 35 33 28 30 26 28 31 36 38 33 32 36 38 39 41 43 44 43 45 47
52 52 52 51 51 51 52 52 52 52 53 53 53 53 53 53 53 50 42 42 41 38 35 40 52 48 52 48 46 43 43 40 42 40 35 33 30 36 33 34 33 35 35 35 34 38 38 41 38 45 44 43 44 44
51 51 51 51 52 51 51 51 52 52 52 53 53 53 53 53 52 45 42 43 43 41 34 37 42 47 46 45 42 40 37 34 34 34 34 32 37 35 36 35 33 36 35 33 32 36 34 35 41 44 44 44 44 44
51 51 51 51 51 51 51 51 52 52 53 53 53 53 53 53 51 45 40 45 45 43 35 34 40 43 43 43 42 39 36 37 34 35 33 36 41 37 31 30 36 41 42 40 38 37 36 40 43 45 45 46 45 44
51 51 51 52 51 51 51 52 52 52 53 53 53 52 52 52 44 43 41 46 48 43 36 33 34 43 45 42 40 39 38 36 37 35 36 36 37 37 33 22 37 40 41 40 41 40 38 41 40 45 46 47 49 47
51 51 51 51 51 51 51 52 52 52 52 52 52 52 52 52 49 45 45 50 47 41 39 32 33 37 44 35 35 39 37 36 37 36 39 37 38 37 26 37 38 41 41 41 41 43 42 43 44 43 44 45 43 43
51 51 51 51 51 51 51 51 52 52 52 52 52 53 47 45 43 45 55 51 44 42 34 32 25 27 40 34 34 36 38 34 38 33 36 37 33 32 38 39 40 41 39 39 41 41 42 41 41 43 42 42 43 41
51 51 51 51 51 51 51 51 52 52 52 52 48 46 41 43 54 53 46 42 42 42 40 33 33 28 34 33 34 33 36 36 31 32 36 33 33 42 44 43 44 44 44 43 39 38 41 41 41 42 42 42 41 41
51 51 51 51 51 51 51 51 51 51 51 43 40 40 43 51 45 42 39 38 37 35 36 34 33 31 37 35 32 35 32 36 29 34 32 33 33 38 43 45 46 46 48 47 45 44 43 43 43 44 43 44 43 45
50 50 50 50 51 51 51 51 51 44 41 42 42 43 42 43 41 38 33 36 33 30 36 32 33 35 36 41 36 37 35 38 33 40 35 31 34 40 45 46 47 46 47 50 51 47 46 46 48 48 47 46 44 44
50 50 50 50 50 51 51 51 51 50 48 44 43 43 41 40 31 33 29 28 28 33 35 38 35 34 36 37 35 36 35 33 41 33 31 33 39 44 46 47 47 48 49 48 51 51 52 51 53 50 49 49 48 45
50 50 50 50 50 51 52 52 51 48 44 43 42 31 32 31 34 35 32 36 40 35 36 39 37 35 36 35 37 35 38 38 29 30 31 37 42 44 46 49 48 48 49 48 50 51 49 50 49 50 51 48 46 43
50 50 50 51 52 52 51 51 51 45 45 43 42 30 35 42 41 41 39 39 41 41 40 39 40 39 38 37 36 35 33 31 32 32 36 39 42 43 43 44 47 47 48 48 50 51 50 50 47 46 46 45 45 44
50 50 49 51 51 51 51 50 48 47 47 46 42 37 37 40 40 40 40 40 45 43 43 42 39 35 34 32 34 31 31 30 33 35 38 40 40 41 41 43 46 50 49 49 49 50 52 50 48 46 46 45 44 44
50 46 51 50 50 50 51 49 49 50 46 44 38 39 42 42 40 38 38 42 46 43 39 40 33 31 35 30 31 34 33 36 36 38 39 39 38 40 41 43 49 49 48 50 51 51 50 50 49 48 44 44 44 44
44 45 50 50 48 48 49 49 50 47 43 39 37 38 38 38 38 43 44 41 43 40 41 38 41 35 31 32 32 34 36 38 38 39 39 39 39 41 44 43 46 46 46 48 47 49 51 49 46 47 49 45 44 43
45 45 49 50 47 44 46 49 47 41 41 40 40 40 40 40 41 41 41 41 41 40 39 35 34 34 34 36 36 36 36 37 37 40 40 41 41 43 44 44 45 43 43 43 44 44 45 46 45 45 44 43 42 43
49 50 50 50 50 46 47 45 46 43 40 41 41 40 40 40 41 40 40 40 40 37 35 33 30 33 36 36 38 38 38 39 38 37 39 41 42 43 42 42 42 43 43 44 44 43 44 44 44 43 44 48 48 46
48 50 50 48 48 47 44 42 43 43 42 40 43 40 39 40 39 39 39 39 38 35 32 37 38 39 41 42 42 42 42 42 39 39 40 40 41 41 41 41 42 42 41 40 41 42 42 42 43 44 48 48 50 49
46 51 48 50 48 47 43 44 43 43 42 41 41 41 39 39 38 39 40 38 36 38 39 40 42 44 45 48 49 45 46 46 44 42 42 42 41 40 40 39 40 40 40 40 40 41 42 43 44 49 49 50 46 48
49 49 48 49 43 37 40 44 44 43 40 41 41 40 39 38 40 43 37 37 39 41 42 43 47 48 48 48 48 49 47 46 44 43 43 41 40 39 40 41 39 40 40 40 40 40 41 39 45 49 47 47 47 46
50 47 44 42 40 37 46 43 43 41 41 39 39 38 39 39 43 40 36 37 40 41 42 44 43 46 45 45 47 50 47 44 43 42 41 41 40 39 40 40 40 40 40 40 41 41 42 42 45 47 48 48 47 47
38 39 39 29 42 42 43 43 43 40 40 40 40 39 39 44 39 39 38 38 39 41 43 43 44 46 46 47 46 46 46 44 44 43 42 41 40 39 40 40 40 41 41 41 41 41 41 42 43 48 47 46 47 47
29 42 38 42 42 41 40 39 41 41 39 38 38 39 39 38 39 39 40 42 43 43 44 44 44 44 45 45 44 44 46 45 44 43 41 42 42 41 39 38 37 40 41 41 41 42 42 42 43 48 46 44 39 46
33 41 43 45 43 42 36 40 39 37 39 37 37 40 33 34 35 39 43 46 46 49 50 48 46 49 48 45 45 47 45 46 46 46 44 43 42 42 41 39 39 41 42 44 43 42 41 42 44 45 45 45 43 43
44 44 41 42 39 39 40 39 39 39 38 39 38 36 35 33 30 38 43 47 48 49 49 48 48 46 46 50 46 49 44 45 47 45 44 44 43 42 42 42 42 35 42 43 42 43 43 43 43 43 41 40 39 41
42 44 44 41 41 40 40 40 40 41 42 38 37 32 33 39 43 44 45 47 47 48 48 48 49 47 46 46 46 44 44 45 44 40 39 37 36 39 39 40 41 42 41 43 36 38 43 42 42 42 41 40 39 39
43 43 41 43 39 38 40 41 41 43 42 42 42 41 41 41 45 45 45 45 46 49 50 48 47 46 44 44 42 42 42 43 43 42 38 37 36 37 37 38 39 39 40 41 41 42 36 41 39 41 39 37 36 36
43 41 41 39 39 40 42 44 44 43 43 42 42 39 39 41 44 45 45 45 45 46 45 45 45 45 44 42 41 41 40 41 42 42 39 37 36 36 36 37 38 39 39 41 41 40 40 38 37 36 35 35 34 34
38 38 34 37 37 42 43 42 40 39 39 39 38 39 40 39 39 42 44 45 46 49 44 46 45 45 46 45 44 44 38 42 41 41 41 38 36 37 36 37 38 40 40 40 40 39 38 37 35 35 34 34 34 34
38 39 39 38 36 40 41 41 40 40 39 38 39 40 40 40 38 42 46 45 46 47 45 46 47 48 48 48 46 43 39 42 39 34 33 32 32 33 35 36 39 40 39 38 37 37 36 35 34 33 33 32 32 33
MSLP
1031.62 1031.55 1031.44 1031.27 1031.01 1030.82 1030.57 1030.13 1029.65 1029.20 1028.63 1028.11 1027.67 1027.17 1026.63 1026.13 1025.55 1025.34 1025.91 1025.72 1025.88 1026.57 1026.78 1026.27 1026.11 1026.25 1026.55 1027.00 1027.93 1027.86 1028.12 1027.97 1028.22 1028.72 1029.14 1029.34 1029.09 1028.35 1027.77 1026.47 1025.41 1024.88 1024.29 1023.43 1022.66 1021.85 1020.71 1019.66 1018.79 1018.61 1018.02 1016.83 1016.15 1015.52
1031.78 1031.76 1031.62 1031.42 1031.31 1031.13 1030.79 1030.45 1030.01 1029.47 1029.14 1028.69 1028.10 1027.54 1027.11 1026.70 1026.19 1025.89 1026.44 1026.10 1026.06 1026.44 1027.09 1026.59 1026.08 1025.87 1025.93 1026.33 1027.37 1028.33 1028.81 1028.97 1029.04 1029.21 1029.59 1029.77 1029.71 1029.04 1028.39 1027.29 1025.65 1025.31 1025.09 1024.47 1023.93 1022.99 1021.47 1020.84 1019.84 1018.61 1017.77 1016.79 1015.61 1015.37
1031.93 1031.92 1031.80 1031.70 1031.56 1031.32 1031.04 1030.67 1030.24 1029.86 1029.36 1028.81 1028.35 1027.94 1027.58 1027.12 1026.81 1026.71 1027.06 1027.11 1026.66 1027.43 1027.47 1026.98 1026.68 1026.28 1026.15 1026.57 1027.08 1028.20 1028.74 1028.61 1028.87 1029.05 1029.63 1029.94 1029.91 1029.58 1028.72 1027.53 1026.68 1025.28 1024.94 1024.71 1024.23 1022.65 1022.15 1020.89 1019.62 1017.44 1016.60 1016.77 1015.39 1014.29
1032.07 1032.03 1032.02 1031.95 1031.75 1031.51 1031.20 1030.77 1030.39 1029.97 1029.45 1028.99 1028.55 1028.17 1027.78 1027.47 1027.26 1027.13 1027.65 1027.59 1027.64 1028.44 1028.75 1028.25 1027.13 1026.80 1026.86 1027.03 1027.53 1027.87 1028.41 1028.83 1029.14 1029.50 1029.91 1029.98 1029.85 1029.41 1028.34 1027.69 1027.08 1026.27 1025.67 1024.87 1024.06 1023.41 1022.56 1021.12 1020.01 1017.51 1017.11 1017.87 1016.79 1016.87
1032.20 1032.17 1032.16 1032.10 1031.89 1031.55 1031.19 1030.81 1030.46 1030.03 1029.49 1029.03 1028.64 1028.24 1027.90 1027.67 1027.45 1027.56 1027.89 1027.85 1027.89 1028.57 1029.33 1028.91 1028.30 1027.87 1027.80 1027.98 1028.46 1028.48 1029.09 1029.60 1029.88 1030.08 1030.10 1030.05 1029.65 1029.19 1028.44 1027.85 1027.23 1026.83 1025.92 1025.29 1024.74 1024.80 1024.40 1023.38 1021.62 1020.18 1019.11 1018.89 1018.81 1018.62
1032.31 1032.35 1032.35 1032.17 1031.87 1031.53 1031.17 1030.80 1030.39 1029.88 1029.31 1028.91 1028.59 1028.25 1027.97 1027.70 1027.53 1027.70 1028.18 1028.10 1028.03 1028.16 1029.03 1029.68 1029.17 1028.56 1028.67 1028.82 1028.99 1029.34 1029.61 1029.87 1030.23 1030.36 1030.33 1029.93 1029.50 1029.37 1029.00 1028.28 1028.17 1027.31 1026.63 1026.27 1025.45 1025.50 1024.79 1023.57 1022.55 1021.63 1020.80 1020.47 1020.23 1019.94
1032.41 1032.44 1032.36 1032.15 1031.89 1031.56 1031.14 1030.70 1030.16 1029.60 1029.04 1028.65 1028.32 1028.05 1027.87 1027.79 1027.98 1028.19 1028.44 1028.41 1028.21 1028.43 1029.43 1030.16 1029.79 1028.94 1028.71 1028.99 1029.29 1029.43 1029.84 1030.14 1029.99 1030.27 1030.14 1029.81 1029.25 1029.16 1029.02 1028.48 1027.43 1027.06 1026.83 1026.67 1026.09 1025.44 1024.93 1024.14 1023.61 1022.66 1021.93 1021.59 1021.28 1021.02
1032.56 1032.49 1032.36 1032.15 1031.88 1031.52 1031.06 1030.50 1029.87 1029.29 1028.72 1028.16 1027.82 1027.73 1027.78 1027.80 1027.95 1028.17 1028.25 1028.03 1028.33 1028.93 1029.63 1030.70 1030.69 1029.78 1029.36 1029.81 1029.91 1029.64 1030.05 1030.03 1030.01 1030.08 1029.86 1029.67 1029.13 1028.80 1028.69 1028.10 1027.26 1026.71 1026.56 1026.65 1026.57 1025.91 1025.50 1024.80 1024.12 1023.55 1023.00 1022.66 1022.33 1022.19
1032.60 1032.50 1032.35 1032.11 1031.78 1031.41 1030.98 1030.38 1029.70 1029.03 1028.37 1027.80 1027.61 1027.69 1028.01 1028.22 1028.65 1028.67 1028.23 1028.33 1028.65 1029.35 1030.27 1031.33 1032.12 1031.29 1030.28 1030.47 1030.44 1030.15 1029.97 1030.27 1030.21 1030.14 1029.93 1029.73 1029.22 1028.60 1028.40 1027.91 1027.22 1026.62 1026.48 1026.46 1026.39 1026.06 1025.55 1025.07 1024.68 1024.29 1024.02 1023.81 1023.59 1023.46
1032.61 1032.47 1032.26 1031.97 1031.66 1031.32 1030.87 1030.27 1029.59 1028.87 1028.15 1027.83 1027.86 1028.21 1029.05 1029.36 1028.79 1028.61 1028.52 1028.86 1029.21 1029.72 1030.36 1031.95 1032.44 1032.07 1031.61 1031.13 1030.88 1030.78 1030.14 1030.25 1030.26 1030.53 1029.97 1029.81 1029.24 1028.88 1028.17 1027.56 1026.97 1026.37 1026.03 1026.05 1026.11 1026.02 1025.75 1025.42 1025.25 1025.00 1024.81 1024.63 1024.48 1024.41
1032.56 1032.40 1032.15 1031.86 1031.57 1031.23 1030.78 1030.26 1029.61 1028.81 1028.19 1028.74 1029.47 1029.91 1029.78 1029.23 1029.23 1029.36 1029.71 1030.15 1030.75 1031.54 1031.98 1032.33 1032.46 1032.21 1031.55 1031.53 1031.28 1030.90 1030.59 1030.22 1030.40 1030.65 1030.33 1030.36 1030.00 1029.40 1028.27 1027.45 1026.81 1026.25 1025.81 1025.75 1025.59 1025.53 1025.49 1025.39 1025.37 1025.19 1025.09 1024.96 1024.78 1024.65
1032.52 1032.31 1032.02 1031.71 1031.41 1031.06 1030.65 1030.27 1029.91 1029.77 1030.19 1030.37 1030.50 1030.46 1030.06 1029.75 1029.90 1030.37 1031.29 1031.50 1032.02 1032.79 1032.54 1032.59 1032.44 1032.19 1031.67 1031.17 1031.01 1030.48 1030.32 1030.07 1030.54 1030.63 1030.73 1030.81 1030.61 1029.43 1028.25 1027.30 1026.71 1026.27 1025.85 1025.68 1025.54 1025.45 1025.27 1025.17 1025.24 1025.33 1025.39 1025.51 1025.67 1025.79
1032.42 1032.15 1031.81 1031.49 1031.15 1030.80 1030.45 1030.09 1029.99 1029.92 1029.89 1030.19 1030.25 1030.25 1030.51 1031.02 1031.42 1032.00 1032.53 1032.68 1033.01 1033.11 1032.73 1032.46 1032.37 1032.00 1031.57 1031.19 1030.85 1030.49 1030.21 1030.69 1030.45 1031.04 1031.71 1031.76 1030.42 1029.29 1027.66 1026.91 1026.61 1026.17 1025.87 1025.65 1025.39 1025.31 1025.25 1025.20 1025.13 1025.37 1025.66 1025.80 1025.87 1026.14
1032.26 1031.91 1031.55 1031.16 1030.78 1030.41 1030.03 1029.75 1029.64 1029.60 1029.77 1030.09 1030.42 1031.35 1031.57 1032.18 1032.39 1032.60 1033.04 1032.87 1032.78 1032.75 1032.57 1032.34 1032.09 1031.91 1031.44 1031.14 1030.74 1030.65 1030.83 1030.83 1031.53 1031.92 1032.46 1031.72 1030.30 1029.58 1028.40 1027.41 1026.78 1026.15 1025.94 1025.81 1025.36 1025.14 1025.25 1025.27 1025.37 1025.45 1025.73 1026.11 1026.35 1026.67
1032.01 1031.60 1031.25 1030.79 1030.45 1030.01 1029.56 1029.20 1029.07 1029.49 1029.77 1030.24 1030.73 1031.95 1032.15 1032.25 1032.30 1032.41 1032.55 1032.59 1032.25 1032.11 1032.13 1032.05 1031.83 1031.80 1031.46 1031.33 1031.47 1031.42 1031.49 1032.19 1032.67 1032.94 1032.47 1031.44 1030.51 1029.73 1028.70 1027.94 1027.31 1026.73 1026.28 1026.13 1025.79 1025.48 1025.34 1025.45 1025.65 1026.00 1026.18 1026.35 1026.54 1026.83
1031.72 1031.23 1031.11 1030.78 1030.21 1029.58 1029.06 1028.92 1029.04 1029.30 1029.78 1030.44 1031.34 1032.16 1032.35 1032.43 1032.41 1032.39 1032.37 1032.21 1031.76 1031.78 1031.81 1031.93 1031.91 1031.97 1032.23 1032.49 1032.49 1032.98 1032.87 1033.33 1033.62 1032.99 1032.17 1031.53 1030.76 1029.97 1029.08 1028.30 1027.75 1027.33 1026.94 1026.77 1026.44 1026.02 1025.71 1025.77 1025.98 1026.21 1026.36 1026.50 1026.71 1026.89
1031.55 1031.49 1031.09 1030.69 1030.04 1029.23 1028.88 1028.84 1029.09 1029.46 1030.29 1031.22 1032.13 1032.22 1032.30 1032.37 1032.43 1032.35 1032.14 1031.87 1031.59 1031.75 1031.80 1031.80 1032.33 1032.78 1032.87 1033.22 1033.62 1033.71 1033.79 1033.66 1033.14 1032.64 1031.93 1031.53 1031.11 1030.37 1029.32 1028.55 1028.15 1027.82 1027.49 1027.14 1026.86 1026.58 1026.48 1026.27 1026.33 1026.57 1026.71 1026.67 1026.70 1026.79
1031.67 1031.50 1031.11 1030.76 1030.31 1029.78 1029.40 1029.20 1029.58 1030.31 1031.23 1031.91 1032.29 1032.36 1032.29 1032.26 1032.27 1031.97 1031.77 1031.65 1031.71 1031.77 1031.94 1032.39 1032.60 1033.11 1033.71 1033.91 1034.25 1034.01 1033.64 1033.19 1032.83 1032.51 1031.99 1031.36 1030.83 1030.23 1029.69 1029.21 1028.67 1028.24 1027.97 1027.64 1027.48 1027.11 1026.67 1026.58 1026.63 1026.55 1026.24 1026.14 1026.35 1026.53
1031.89 1031.53 1030.93 1030.77 1030.83 1030.89 1030.57 1030.10 1030.19 1031.13 1031.63 1031.85 1032.05 1032.12 1032.15 1032.18 1032.07 1031.94 1031.84 1031.77 1031.68 1031.81 1032.23 1032.81 1033.38 1033.80 1034.09 1033.89 1033.91 1033.61 1033.49 1033.33 1033.11 1032.49 1031.89 1031.36 1030.97 1030.52 1030.17 1029.71 1029.28 1028.95 1028.57 1028.24 1027.99 1027.84 1027.53 1027.35 1027.23 1026.77 1026.39 1026.04 1026.17 1026.20
1031.25 1030.89 1030.66 1030.46 1030.75 1030.97 1030.91 1030.87 1030.74 1031.25 1031.79 1031.93 1032.03 1032.15 1032.11 1032.15 1032.06 1032.04 1032.04 1031.97 1032.16 1032.40 1032.85 1033.23 1033.61 1033.74 1033.71 1033.34 1033.10 1032.90 1032.71 1032.70 1032.73 1032.43 1032.00 1031.48 1031.12 1030.81 1030.73 1030.49 1030.16 1029.60 1029.21 1028.85 1028.53 1028.21 1027.98 1027.63 1027.20 1026.90 1026.55 1026.23 1026.04 1026.09
1031.15 1030.83 1030.61 1030.75 1030.94 1031.00 1031.32 1031.37 1031.30 1031.38 1031.55 1031.87 1031.89 1032.03 1032.31 1032.09 1032.19 1032.27 1032.21 1032.05 1032.43 1033.04 1033.33 1033.15 1033.02 1032.78 1032.47 1032.31 1032.14 1032.10 1031.87 1031.87 1032.05 1032.01 1031.94 1031.84 1031.48 1031.19 1031.00 1030.75 1030.47 1030.12 1029.98 1029.79 1029.43 1029.01 1028.57 1028.39 1027.74 1027.17 1026.78 1026.32 1026.15 1025.86
1031.65 1031.11 1031.05 1030.83 1031.10 1031.14 1031.28 1031.22 1031.35 1031.37 1031.60 1031.76 1031.86 1031.93 1032.19 1032.45 1032.34 1032.30 1032.23 1032.59 1033.03 1032.98 1032.78 1032.55 1032.26 1031.85 1031.63 1031.35 1031.15 1031.31 1031.15 1031.20 1031.31 1031.42 1031.47 1031.42 1031.60 1031.51 1031.38 1031.19 1030.86 1030.75 1030.43 1030.18 1029.90 1029.62 1029.07 1028.47 1027.90 1027.22 1026.94 1026.58 1026.33 1026.14
1031.60 1031.43 1031.41 1031.42 1031.48 1031.57 1031.43 1031.09 1031.23 1031.31 1031.66 1031.81 1031.85 1032.02 1032.15 1032.19 1031.97 1031.95 1032.57 1032.85 1032.66 1032.24 1032.07 1031.90 1031.51 1031.17 1031.09 1030.87 1030.84 1030.97 1030.93 1031.00 1031.32 1031.55 1031.60 1031.63 1031.56 1031.58 1031.44 1031.25 1031.11 1030.95 1030.70 1030.30 1030.01 1029.65 1029.15 1028.53 1027.78 1027.37 1026.96 1026.73 1026.63 1026.49
1031.59 1031.80 1031.88 1031.94 1031.88 1031.80 1031.27 1031.20 1031.17 1031.30 1031.45 1031.73 1031.91 1031.89 1032.02 1031.99 1031.97 1032.15 1032.56 1032.61 1032.22 1031.90 1031.76 1031.64 1031.19 1030.97 1031.04 1030.95 1030.97 1030.88 1030.80 1030.99 1031.27 1031.36 1031.40 1031.65 1031.79 1031.79 1031.57 1031.40 1031.14 1030.87 1030.62 1030.33 1029.97 1029.65 1029.23 1028.71 1027.95 1027.55 1027.30 1027.09 1026.82 1026.69
1032.34 1032.41 1032.54 1032.14 1031.88 1031.84 1031.54 1031.31 1031.42 1031.60 1031.75 1031.74 1031.86 1031.86 1031.94 1031.87 1032.27 1032.23 1032.43 1032.31 1031.99 1031.91 1031.58 1031.41 1031.27 1031.09 1031.32 1031.22 1031.12 1031.00 1030.80 1031.01 1031.27 1031.38 1031.35 1031.53 1031.69 1031.79 1031.69 1031.43 1031.19 1030.80 1030.47 1030.29 1030.08 1029.71 1029.25 1028.77 1028.36 1027.95 1027.67 1027.48 1027.25 1027.04
1032.53 1032.24 1032.24 1031.89 1031.87 1031.89 1031.80 1031.78 1031.78 1031.89 1031.90 1031.89 1031.96 1032.00 1031.98 1032.24 1032.42 1032.50 1032.53 1032.34 1032.11 1031.81 1031.48 1031.23 1031.23 1031.15 1031.11 1031.16 1031.13 1030.99 1030.74 1030.65 1030.92 1031.21 1031.45 1031.49 1031.51 1031.72 1031.87 1031.73 1031.49 1030.92 1030.44 1030.24 1030.08 1029.70 1029.33 1028.97 1028.71 1028.40 1028.19 1028.05 1027.77 1027.47
1032.55 1031.95 1031.74 1031.50 1031.57 1031.73 1032.06 1032.00 1032.01 1032.21 1032.20 1032.31 1032.40 1032.38 1032.38 1032.46 1032.58 1032.63 1032.13 1031.83 1031.85 1031.31 1030.87 1030.77 1030.73 1030.79 1030.78 1030.81 1030.61 1030.44 1030.33 1030.41 1030.51 1030.77 1031.17 1031.38 1031.50 1031.56 1031.62 1031.63 1031.40 1030.97 1030.50 1030.11 1029.75 1029.51 1029.38 1029.28 1029.11 1029.01 1028.94 1028.75 1028.65 1028.36
1032.11 1031.67 1031.66 1031.75 1031.88 1031.96 1032.22 1032.24 1032.25 1032.32 1032.44 1032.55 1032.60 1032.62 1032.60 1032.44 1032.41 1032.15 1031.71 1031.12 1030.89 1030.77 1030.53 1030.39 1030.39 1030.47 1030.43 1030.40 1030.25 1030.25 1030.57 1030.63 1030.97 1031.29 1031.44 1031.56 1031.55 1031.59 1031.49 1031.36 1031.05 1030.99 1030.33 1030.12 1029.91 1029.47 1029.45 1029.48 1029.49 1029.46 1029.47 1029.48 1029.49 1029.10
1031.97 1031.50 1031.56 1031.88 1032.00 1032.05 1032.12 1032.29 1032.30 1032.18 1032.18 1032.53 1032.72 1032.60 1032.29 1032.06 1031.47 1031.17 1030.92 1030.70 1030.44 1030.47 1030.55 1030.58 1030.63 1030.57 1030.55 1030.51 1030.61 1030.90 1031.16 1031.31 1031.55 1031.77 1031.88 1032.11 1032.26 1032.21 1032.05 1031.71 1031.22 1030.74 1030.48 1030.27 1030.47 1030.13 1030.17 1030.15 1030.05 1030.01 1030.01 1030.00 1030.00 1029.85
1031.83 1031.59 1031.69 1031.83 1032.07 1032.22 1031.97 1031.79 1031.80 1031.54 1031.76 1031.99 1032.01 1032.03 1031.87 1031.47 1030.67 1030.28 1030.43 1030.48 1030.53 1030.41 1030.25 1030.38 1030.52 1030.81 1030.98 1031.10 1031.58 1031.77 1031.75 1031.67 1031.62 1031.97 1032.10 1032.25 1032.42 1032.38 1032.23 1032.03 1031.59 1031.10 1030.67 1030.43 1030.56 1030.70 1030.57 1030.34 1030.52 1030.55 1030.63 1030.69 1030.70 1030.66
1031.77 1031.76 1031.96 1031.99 1032.09 1031.81 1031.55 1031.32 1031.30 1031.34 1031.36 1031.56 1031.62 1031.84 1031.81 1031.38 1030.71 1030.08 1030.11 1029.96 1030.07 1030.18 1030.23 1030.44 1030.56 1030.74 1031.00 1031.35 1031.63 1031.99 1032.17 1032.07 1031.99 1031.99 1032.08 1032.26 1032.42 1032.43 1032.27 1031.99 1031.65 1031.16 1030.69 1030.59 1030.76 1030.95 1031.08 1031.17 1031.32 1031.39 1031.43 1031.50 1031.52 1031.43
1031.99 1032.23 1032.30 1032.42 1032.21 1031.58 1031.26 1031.21 1031.17 1031.25 1031.29 1031.49 1031.57 1031.52 1031.44 1031.38 1031.24 1030.44 1030.26 1030.03 1029.97 1030.00 1030.05 1030.17 1030.36 1030.54 1030.52 1030.67 1031.03 1031.31 1031.38 1031.62 1031.94 1032.06 1032.22 1032.44 1032.59 1032.48 1032.34 1032.06 1031.67 1031.16 1030.92 1030.93 1031.08 1031.39 1031.53 1031.67 1031.85 1031.92 1031.95 1031.97 1031.93 1031.81
1032.16 1032.12 1032.12 1032.15 1032.04 1031.76 1031.30 1031.26 1031.18 1031.15 1031.15 1031.11 1030.99 1030.83 1030.82 1031.02 1031.03 1030.61 1030.25 1030.03 1029.96 1029.77 1029.81 1029.85 1029.75 1029.84 1030.09 1030.33 1030.55 1031.05 1031.49 1031.61 1031.87 1032.27 1032.51 1032.63 1032.67 1032.61 1032.43 1032.24 1031.94 1031.71 1031.61 1031.63 1031.76 1031.91 1032.10 1032.21 1032.36 1032.41 1032.44 1032.43 1032.37 1032.25
Wind_Speed
5 6 8 9 11 13 14 15 17 18 19 20 20 20 19 19 19 6 2 4 4 4 3 4 4 3 2 3 1 5 4 5 4 5 3 3 2 3 4 5 5 4 5 4 4 3 5 12 19 5 4 12 14 16
5 5 6 9 10 11 13 14 15 17 16 17 18 18 17 16 17 6 3 3 2 5 3 2 2 3 3 2 4 3 3 1 1 1 1 1 2 3 3 5 5 4 1 5 4 5 11 15 19 13 13 16 19 13
4 4 6 8 9 10 12 13 15 15 16 16 17 17 15 14 14 6 1 4 4 4 5 5 4 4 4 3 3 4 2 2 2 2 1 0 3 1 2 4 4 4 4 3 7 5 15 20 19 18 13 6 17 18
3 5 6 7 9 10 11 13 14 16 16 15 15 15 13 12 11 7 3 3 5 3 5 5 4 3 3 8 7 3 4 4 4 2 2 1 2 1 3 4 4 3 8 6 5 5 15 15 24 15 18 14 19 21
3 4 6 8 9 11 12 13 14 15 15 16 15 14 12 10 8 3 1 2 1 5 4 3 5 7 7 7 8 8 7 4 3 3 2 1 2 3 3 3 3 7 7 5 3 9 5 9 17 17 13 16 16 17
2 4 6 8 10 11 13 14 15 15 16 17 15 12 10 9 5 3 4 3 3 3 5 2 3 1 2 5 7 6 4 3 3 3 1 2 3 2 3 3 3 5 8 12 5 7 8 9 12 12 13 13 14 13
1 4 6 9 11 12 13 15 16 16 17 17 14 9 7 5 3 4 4 3 3 3 4 3 4 4 1 2 1 1 3 2 2 2 1 1 2 1 1 2 6 5 6 7 7 7 6 12 9 14 14 12 14 13
2 5 7 9 11 12 14 16 17 18 19 17 10 4 1 2 2 3 3 1 2 4 3 3 4 4 6 3 3 2 3 2 3 1 1 2 4 1 2 11 8 6 3 5 7 8 6 6 6 9 9 9 12 11
3 6 8 9 11 13 15 16 18 20 20 13 4 5 4 5 4 2 1 6 2 4 4 4 2 4 5 3 1 4 1 3 1 2 2 2 3 3 4 12 10 6 3 0 4 4 7 8 9 10 9 10 10 8
4 6 8 10 12 13 15 16 18 20 17 1 3 4 4 3 4 3 5 4 5 4 5 3 0 3 3 3 3 3 2 2 2 3 2 3 2 6 11 13 9 6 4 4 3 3 4 5 7 7 6 5 6 5
5 7 9 11 12 14 14 15 18 18 7 5 4 2 3 6 3 3 3 4 3 5 4 2 2 2 2 2 2 1 2 2 4 4 3 4 5 10 16 13 10 7 3 3 3 1 2 2 3 4 6 6 6 8
6 8 10 12 13 13 13 14 13 6 2 3 2 2 2 4 4 6 3 4 5 1 4 2 3 2 4 1 1 1 2 3 3 3 3 6 4 15 14 11 10 8 5 1 2 4 2 2 1 4 4 5 6 5
8 10 11 12 13 13 13 13 9 5 2 2 1 3 5 4 10 5 5 4 4 4 3 4 4 1 4 1 2 2 4 1 1 3 3 4 10 9 14 7 6 7 8 7 2 1 2 1 2 4 4 3 5 7
9 11 13 13 14 11 14 13 8 3 2 3 4 6 4 4 1 0 1 2 3 3 3 2 2 1 2 4 1 4 2 4 4 4 3 5 10 11 10 6 3 5 3 5 6 2 2 2 4 4 4 5 5 5
11 13 13 7 12 14 15 13 3 2 2 3 4 3 3 1 0 2 2 2 3 1 1 3 2 1 2 3 4 3 5 4 3 3 3 6 13 10 9 8 8 9 8 7 7 3 2 5 6 5 5 5 5 5
12 10 3 12 15 17 15 1 2 2 3 3 5 3 2 0 1 1 2 3 2 1 0 1 2 2 5 3 4 4 3 4 2 4 5 7 9 9 9 7 6 3 3 3 4 6 4 2 4 4 4 4 4 4
8 1 9 14 18 16 7 2 2 4 4 4 2 1 2 1 2 2 2 3 1 1 1 2 4 2 1 4 3 2 1 3 4 6 5 5 6 9 8 6 6 6 5 4 2 4 7 4 2 2 2 3 4 5
0 4 13 14 12 6 4 2 2 4 4 1 2 3 1 2 2 3 2 1 1 1 2 2 2 4 2 2 0 3 3 4 4 4 5 6 6 6 6 7 8 6 4 5 5 5 2 5 5 4 5 6 6 5
6 8 15 12 3 2 3 5 4 3 0 1 1 1 1 2 2 3 1 2 2 2 4 3 4 2 2 2 3 4 3 2 3 5 5 6 5 4 6 7 7 8 7 6 6 4 4 5 3 4 4 2 3 3
12 10 7 4 3 2 3 3 3 4 1 3 1 1 0 1 2 1 2 2 2 2 4 3 2 3 4 4 4 4 4 3 2 4 3 5 4 5 6 4 4 5 5 6 5 6 5 6 5 5 4 2 1 3
7 4 5 2 2 3 2 1 3 2 1 1 0 1 1 2 2 3 3 1 4 3 2 2 3 4 5 5 4 4 5 2 4 4 3 2 3 2 3 4 4 4 4 4 4 5 5 4 4 4 4 3 3 3
3 6 2 2 3 3 2 1 2 1 2 1 1 1 1 1 2 2 0 5 1 3 3 3 2 2 3 4 2 4 4 3 1 1 1 1 2 2 3 3 3 4 4 3 4 4 5 4 4 3 3 4 4 3
6 2 3 3 2 5 5 2 2 1 2 2 2 1 1 1 3 2 2 2 3 3 3 3 4 5 5 5 3 2 1 3 1 2 1 1 2 1 1 3 2 3 4 4 3 4 4 6 6 4 4 4 3 3
2 2 2 1 3 3 2 2 0 1 1 1 0 2 1 2 1 2 1 2 3 2 1 2 2 2 2 2 1 2 3 2 2 1 1 3 2 1 1 3 2 2 2 3 3 4 5 5 8 4 4 4 4 4
4 4 4 4 2 1 2 1 1 3 1 0 1 2 1 3 3 1 2 3 1 1 2 2 2 3 2 1 2 3 1 2 2 2 1 2 2 1 3 3 4 3 3 4 5 5 5 5 5 5 5 5 6 6
2 2 3 2 1 1 1 2 1 1 2 2 1 1 2 2 4 1 2 3 3 2 2 2 2 1 2 2 2 2 3 3 3 3 0 3 3 3 1 2 3 4 2 2 3 4 6 5 5 5 7 8 7 6
2 3 3 2 2 3 3 1 1 1 1 1 1 1 1 1 1 2 3 4 4 4 4 3 3 3 3 4 3 3 2 4 3 4 4 3 2 1 2 1 3 4 4 5 4 2 1 3 5 6 5 6 6 6
4 1 3 2 2 1 2 0 1 1 1 2 1 1 2 5 6 4 4 4 4 4 2 2 2 1 1 3 2 4 4 5 6 5 3 3 3 3 4 3 4 5 2 4 4 4 4 5 5 5 5 5 5 5
3 2 3 1 2 1 2 2 1 2 3 3 3 2 4 3 3 3 4 3 1 1 1 3 3 3 3 4 5 4 4 4 4 1 2 3 3 4 5 5 4 4 4 2 5 5 7 5 5 5 5 4 4 5
2 1 3 2 3 3 3 5 3 3 3 4 3 1 2 3 4 2 2 1 1 3 3 3 3 4 4 5 4 4 4 3 3 3 1 3 3 3 4 4 5 5 4 2 3 3 6 5 5 5 7 6 5 5
1 2 2 1 2 2 3 2 1 1 1 3 2 4 4 3 4 3 3 3 3 1 3 2 2 4 5 4 4 4 1 2 2 3 3 2 1 2 3 4 4 4 3 2 4 4 4 4 4 5 6 6 6 5
2 2 3 1 3 4 2 1 2 2 2 1 3 1 2 2 2 4 4 1 2 3 3 4 5 4 5 4 4 3 4 5 4 3 5 3 2 2 3 3 4 4 5 5 5 5 6 6 5 5 5 6 6 6
1 1 1 0 3 3 3 1 1 2 1 2 3 5 5 6 5 3 3 2 2 2 3 4 5 4 6 7 7 5 5 5 6 5 6 5 5 3 3 3 4 4 6 6 5 5 6 7 5 6 6 6 6 6
Wind_Direction
68 47 35 29 24 15 8 7 6 3 5 6 6 8 9 8 9 35 281 5 107 104 308 34 27 50 54 77 115 286 32 5 15 45 43 343 319 298 325 268 282 297 332 316 314 316 330 338 331 320 273 295 301 304
76 47 33 27 17 6 0 359 358 359 357 359 3 6 7 7 9 33 17 354 3 86 177 310 331 327 126 143 142 12 156 289 181 78 45 337 312 333 317 290 320 342 139 305 294 280 295 312 304 304 294 287 299 285
78 43 29 18 6 357 352 353 353 351 351 355 359 2 3 8 13 50 2 316 40 55 11 43 359 346 8 69 136 106 297 274 119 76 94 237 290 189 285 265 294 292 43 274 335 331 327 318 321 297 291 339 336 66
75 41 18 4 357 348 347 347 346 344 344 350 354 356 360 6 11 39 56 309 78 100 103 288 349 12 78 67 54 76 110 43 84 57 58 14 287 245 284 293 284 316 316 318 261 316 307 343 341 32 70 64 51 63
68 29 4 352 345 345 344 341 338 334 338 347 351 351 352 355 4 67 69 358 103 118 158 258 312 13 53 78 62 63 71 70 61 71 49 2 284 294 300 291 337 337 340 338 320 2 337 316 11 24 41 64 63 65
67 8 352 346 343 343 340 333 330 330 334 340 342 340 340 343 15 66 29 344 5 94 86 73 299 42 85 71 71 68 82 88 82 75 358 282 261 330 340 335 326 351 19 2 14 6 334 0 9 10 38 73 81 77
78 360 345 345 342 337 332 330 328 329 329 330 328 323 330 345 55 92 171 222 6 79 72 28 352 327 276 66 31 42 67 63 94 121 328 276 282 65 277 332 289 327 6 19 16 311 8 16 12 18 24 43 63 64
21 353 343 337 335 332 331 332 328 328 330 329 320 311 326 27 31 27 320 242 90 85 69 72 302 13 9 0 344 10 39 41 357 24 308 352 310 333 18 332 318 305 343 31 10 357 359 309 15 17 21 23 43 45
356 347 332 333 333 332 332 327 327 330 331 336 79 119 68 37 36 293 46 72 61 117 100 71 78 285 356 343 302 342 50 35 293 32 17 23 299 10 341 334 331 328 324 41 24 347 335 0 359 15 31 29 46 38
343 333 329 331 329 331 329 327 327 330 330 100 45 47 24 315 287 359 6 18 17 351 36 75 60 309 44 7 323 351 21 37 28 287 16 30 290 342 342 332 329 316 6 130 143 23 8 358 7 12 33 37 55 59
333 327 328 328 330 329 326 327 329 335 19 38 26 67 257 310 40 34 32 56 346 30 10 314 170 299 317 5 292 149 293 318 49 330 63 352 355 337 326 333 339 334 319 65 95 131 244 288 351 36 37 41 44 44
328 324 320 322 324 323 322 323 340 20 86 183 208 282 308 34 36 61 9 4 46 7 320 334 273 237 295 311 323 303 1 31 37 328 38 356 299 309 337 332 336 342 344 268 140 144 210 248 76 75 68 73 67 59
322 315 316 317 318 318 314 314 329 288 334 105 97 46 46 340 37 44 344 332 354 331 324 335 333 294 332 8 275 344 67 127 14 47 55 277 291 328 332 354 350 348 11 360 294 156 189 270 83 117 109 100 90 87
313 313 315 316 315 311 311 313 321 17 93 61 53 19 90 356 43 295 268 301 262 218 287 289 275 300 303 343 329 56 0 64 40 30 21 290 311 325 308 334 289 297 338 337 1 226 306 9 46 64 131 106 101 100
314 315 316 318 322 318 312 315 306 126 91 65 61 45 48 83 90 222 230 309 256 222 259 327 306 353 308 23 29 24 34 54 51 337 263 300 314 317 310 335 346 33 64 42 336 34 46 77 90 80 86 113 118 121
321 319 344 333 329 323 324 39 110 99 64 67 53 55 341 11 306 268 242 260 242 223 340 249 328 30 30 47 38 14 47 32 286 252 271 309 315 320 324 335 341 35 30 75 16 343 16 44 122 145 130 138 150 155
329 337 331 335 334 325 337 54 46 48 71 57 18 51 197 229 236 267 223 255 254 357 331 56 51 30 29 47 44 45 130 227 250 294 291 287 297 310 319 343 12 28 35 30 35 33 15 7 96 139 214 239 210 208
223 297 321 334 344 340 340 41 63 76 59 40 89 270 234 211 273 294 278 309 175 87 39 95 128 38 61 80 300 250 260 271 253 266 283 302 328 338 3 21 20 14 22 5 351 349 28 31 14 340 278 226 208 224
275 295 303 318 359 46 10 1 61 93 166 227 269 313 204 263 254 267 259 340 61 95 98 52 80 98 133 234 221 258 251 250 285 309 303 317 333 21 26 20 17 14 13 12 12 4 343 349 317 315 316 318 218 257
298 290 311 333 140 45 32 346 62 99 146 248 53 354 173 223 278 23 354 14 64 70 54 70 176 201 197 230 211 239 251 233 283 325 322 344 356 30 30 21 6 352 11 17 18 18 2 1 356 342 342 6 33 344
347 315 19 94 40 68 125 349 23 181 155 104 256 73 314 5 17 357 349 322 59 47 35 224 216 234 218 236 227 240 278 240 211 197 212 341 327 28 22 12 3 18 22 5 5 340 8 352 305 333 335 26 31 10
281 339 2 348 43 3 39 247 158 268 83 221 29 82 60 345 297 284 233 50 47 248 199 193 241 257 285 283 276 188 249 198 188 98 65 199 83 24 3 339 18 1 360 352 349 333 318 318 315 331 338 336 349 327
322 32 1 9 61 42 263 58 46 15 107 285 38 4 291 276 235 107 58 207 244 232 216 225 245 227 235 280 305 3 272 185 93 72 124 135 153 154 40 11 11 24 7 336 329 325 324 306 315 331 349 351 4 350
334 37 15 343 121 257 345 310 174 60 67 46 203 263 267 290 334 72 196 247 252 294 241 259 255 108 57 35 260 239 229 140 109 74 151 132 117 246 301 324 332 302 258 270 327 336 332 331 323 344 2 340 1 356
55 316 90 313 267 357 277 297 74 41 305 220 282 328 321 76 310 273 224 278 266 272 291 341 29 94 131 297 308 291 261 170 152 127 328 150 135 14 321 313 319 295 324 12 348 339 334 335 345 1 15 9 10 1
103 240 137 221 311 149 347 45 84 253 256 284 293 311 43 138 194 273 336 333 322 273 268 193 190 112 342 200 244 272 265 180 133 101 356 173 148 140 207 332 318 310 335 311 308 330 331 339 350 3 30 1 359 359
337 268 233 251 142 108 38 354 77 72 315 352 317 330 30 243 296 259 245 175 205 235 243 235 207 210 219 272 275 256 197 179 165 143 135 114 99 116 130 35 303 259 316 316 322 1 321 25 34 38 45 34 15 21
246 253 165 204 85 110 128 250 271 221 193 242 39 323 266 194 227 230 223 251 222 247 263 288 263 223 239 293 291 114 75 94 88 79 62 46 39 32 14 345 318 344 343 355 341 48 60 83 75 69 62 50 12 2
264 264 112 100 75 97 189 191 238 241 179 132 154 242 252 227 227 208 223 218 255 187 330 344 38 36 63 64 62 66 100 126 118 85 331 302 334 313 343 338 339 351 360 11 10 49 75 83 74 65 54 46 27 18
278 70 109 124 147 211 242 174 208 214 181 187 180 322 321 283 256 212 208 180 202 244 223 205 146 159 153 125 112 60 20 29 76 124 211 274 258 297 326 331 335 336 343 28 62 70 59 59 46 43 47 37 26 31
328 50 74 98 213 251 232 248 251 217 190 198 193 167 224 266 305 267 220 217 183 167 109 124 130 146 143 154 150 131 133 313 113 104 112 110 60 352 334 328 319 317 330 87 97 105 99 74 68 66 59 53 41 43
71 130 122 31 284 280 304 211 232 215 250 190 261 207 336 33 285 291 336 36 141 150 175 157 148 177 190 186 173 185 188 156 168 146 139 126 95 29 4 352 342 359 39 62 89 96 91 90 79 68 58 50 42 38
92 114 136 184 340 321 286 120 284 288 276 259 250 201 194 176 214 254 290 6 186 207 201 197 197 163 170 181 184 163 150 152 154 150 147 143 136 104 52 29 28 40 51 53 64 84 78 77 67 58 48 40 30 23